Time,TemperatureF,DewpointF,PressureIn,WindDirection,WindDirectionDegrees,WindSpeedMPH,WindSpeedGustMPH,Humidity,HourlyPrecipIn,Conditions,Clouds,dailyrainin,SoftwareType,DateUTC
2013-03-16 00:03:00,56.0,45.0,29.99,SSE,150,4.0,9.0,66,0.00,,,0.00,,2013-03-16 04:03:00,
2013-03-16 00:13:00,56.0,45.0,29.99,SSE,150,4.0,9.0,66,0.00,,,0.00,,2013-03-16 04:13:00,
2013-03-16 00:23:00,56.0,45.0,29.99,SW,226,5.0,11.0,67,0.00,,,0.00,,2013-03-16 04:23:00,
2013-03-16 00:33:00,56.0,46.0,29.98,SW,221,5.0,10.0,69,0.00,,,0.00,,2013-03-16 04:33:00,
2013-03-16 00:43:00,56.0,46.0,29.98,SW,221,5.0,10.0,69,0.00,,,0.00,,2013-03-16 04:43:00,
2013-03-16 00:52:00,56.0,46.0,29.98,SSW,192,4.0,10.0,70,0.00,,,0.00,,2013-03-16 04:52:00,
2013-03-16 01:02:00,56.0,46.0,29.97,SSE,153,4.0,10.0,70,0.00,,,0.00,,2013-03-16 05:02:00,
2013-03-16 01:12:00,56.0,46.0,29.97,SSE,153,4.0,10.0,70,0.00,,,0.00,,2013-03-16 05:12:00,
2013-03-16 01:22:00,56.0,47.0,29.97,South,172,3.0,10.0,71,0.00,,,0.00,,2013-03-16 05:22:00,
2013-03-16 01:32:00,56.0,47.0,29.96,South,173,3.0,8.0,71,0.00,,,0.00,,2013-03-16 05:32:00,
2013-03-16 01:42:00,56.0,47.0,29.96,South,173,3.0,8.0,71,0.00,,,0.00,,2013-03-16 05:42:00,
2013-03-16 01:52:00,57.0,47.0,29.96,SW,232,3.0,8.0,70,0.00,,,0.00,,2013-03-16 05:52:00,
2013-03-16 02:02:00,57.0,47.0,29.96,SSW,194,3.0,12.0,68,0.00,,,0.00,,2013-03-16 06:02:00,
2013-03-16 02:12:00,57.0,47.0,29.96,SSW,194,3.0,12.0,68,0.00,,,0.00,,2013-03-16 06:12:00,
2013-03-16 02:22:00,58.0,47.0,29.96,WSW,257,4.0,12.0,66,0.00,,,0.00,,2013-03-16 06:22:00,
2013-03-16 02:32:00,58.0,46.0,29.95,WSW,244,4.0,9.0,65,0.00,,,0.00,,2013-03-16 06:32:00,
2013-03-16 02:42:00,58.0,46.0,29.95,WSW,244,4.0,9.0,65,0.00,,,0.00,,2013-03-16 06:42:00,
2013-03-16 02:52:00,58.0,45.0,29.95,SW,217,3.0,10.0,63,0.00,,,0.00,,2013-03-16 06:52:00,
2013-03-16 03:02:00,59.0,45.0,29.95,SSW,200,6.0,14.0,60,0.00,,,0.00,,2013-03-16 07:02:00,
2013-03-16 03:12:00,59.0,45.0,29.95,SSW,200,6.0,14.0,60,0.00,,,0.00,,2013-03-16 07:12:00,
2013-03-16 03:22:00,60.0,46.0,29.95,WSW,254,5.0,16.0,59,0.00,,,0.00,,2013-03-16 07:22:00,
2013-03-16 03:32:00,60.0,46.0,29.93,West,273,5.0,19.0,59,0.00,,,0.00,,2013-03-16 07:32:00,
2013-03-16 03:42:00,60.0,46.0,29.93,West,273,5.0,19.0,59,0.00,,,0.00,,2013-03-16 07:42:00,
2013-03-16 03:52:00,60.0,46.0,29.93,WSW,250,5.0,11.0,59,0.00,,,0.00,,2013-03-16 07:52:00,
2013-03-16 04:03:00,60.0,45.0,29.93,South,182,5.0,18.0,58,0.00,,,0.00,,2013-03-16 08:03:00,
2013-03-16 04:12:00,60.0,45.0,29.93,South,182,5.0,18.0,58,0.00,,,0.00,,2013-03-16 08:12:00,
2013-03-16 04:23:00,60.0,45.0,29.92,WSW,252,4.0,15.0,57,0.00,,,0.00,,2013-03-16 08:23:00,
2013-03-16 04:33:00,61.0,46.0,29.91,WSW,249,5.0,15.0,57,0.00,,,0.00,,2013-03-16 08:33:00,
2013-03-16 04:42:00,61.0,46.0,29.91,WSW,249,5.0,15.0,57,0.00,,,0.00,,2013-03-16 08:42:00,
2013-03-16 04:52:00,61.0,46.0,29.91,SW,232,8.0,21.0,57,0.00,,,0.00,,2013-03-16 08:52:00,
2013-03-16 05:02:00,60.0,45.0,29.91,WSW,258,8.0,16.0,57,0.00,,,0.00,,2013-03-16 09:02:00,
2013-03-16 05:12:00,60.0,45.0,29.91,WSW,258,8.0,16.0,57,0.00,,,0.00,,2013-03-16 09:12:00,
2013-03-16 05:22:00,60.0,45.0,29.91,SSW,195,7.0,22.0,57,0.00,,,0.00,,2013-03-16 09:22:00,
2013-03-16 05:33:00,60.0,45.0,29.91,WSW,244,9.0,23.0,57,0.00,,,0.00,,2013-03-16 09:33:00,
2013-03-16 05:42:00,60.0,45.0,29.91,WSW,244,9.0,23.0,57,0.00,,,0.00,,2013-03-16 09:42:00,
2013-03-16 05:52:00,60.0,45.0,29.92,WNW,301,6.0,14.0,57,0.00,,,0.00,,2013-03-16 09:52:00,
2013-03-16 06:03:00,60.0,45.0,29.92,WSW,241,4.0,17.0,57,0.00,,,0.00,,2013-03-16 10:03:00,
2013-03-16 06:12:00,60.0,45.0,29.92,WSW,241,4.0,17.0,57,0.00,,,0.00,,2013-03-16 10:12:00,
2013-03-16 06:23:00,60.0,45.0,29.92,West,263,6.0,17.0,57,0.00,,,0.00,,2013-03-16 10:23:00,
2013-03-16 06:32:00,60.0,45.0,29.92,West,279,7.0,16.0,57,0.00,,,0.00,,2013-03-16 10:32:00,
2013-03-16 06:42:00,60.0,45.0,29.92,West,279,7.0,16.0,57,0.00,,,0.00,,2013-03-16 10:42:00,
2013-03-16 06:52:00,60.0,45.0,29.92,WSW,255,7.0,18.0,57,0.00,,,0.00,,2013-03-16 10:52:00,
2013-03-16 07:03:00,60.0,45.0,29.92,West,259,8.0,14.0,57,0.00,,,0.00,,2013-03-16 11:03:00,
2013-03-16 07:12:00,60.0,45.0,29.92,West,259,8.0,14.0,57,0.00,,,0.00,,2013-03-16 11:12:00,
2013-03-16 07:22:00,60.0,45.0,29.93,West,267,8.0,16.0,57,0.00,,,0.00,,2013-03-16 11:22:00,
2013-03-16 07:33:00,60.0,45.0,29.93,West,277,6.0,17.0,57,0.00,,,0.00,,2013-03-16 11:33:00,
2013-03-16 07:43:00,60.0,45.0,29.93,West,277,6.0,17.0,57,0.00,,,0.00,,2013-03-16 11:43:00,
2013-03-16 07:52:00,60.0,45.0,29.93,West,277,6.0,17.0,57,0.00,,,0.00,,2013-03-16 11:52:00,
2013-03-16 08:02:00,60.0,45.0,29.93,West,271,6.0,19.0,58,0.00,,,0.00,,2013-03-16 12:02:00,
2013-03-16 08:12:00,60.0,45.0,29.93,West,271,6.0,19.0,58,0.00,,,0.00,,2013-03-16 12:12:00,
2013-03-16 08:22:00,60.0,45.0,29.93,WSW,249,7.0,16.0,58,0.00,,,0.00,,2013-03-16 12:22:00,
2013-03-16 08:32:00,60.0,45.0,29.93,West,262,8.0,17.0,58,0.00,,,0.00,,2013-03-16 12:32:00,
2013-03-16 08:42:00,60.0,45.0,29.93,West,262,8.0,17.0,58,0.00,,,0.00,,2013-03-16 12:42:00,
2013-03-16 08:52:00,60.0,45.0,29.93,West,267,8.0,17.0,58,0.00,,,0.00,,2013-03-16 12:52:00,
2013-03-16 09:02:00,60.0,45.0,29.93,WSW,254,6.0,18.0,58,0.00,,,0.00,,2013-03-16 13:02:00,
2013-03-16 09:12:00,60.0,45.0,29.93,WSW,254,6.0,18.0,58,0.00,,,0.00,,2013-03-16 13:12:00,
2013-03-16 09:22:00,60.0,45.0,29.93,WSW,254,6.0,18.0,58,0.00,,,0.00,,2013-03-16 13:22:00,
2013-03-16 09:32:00,61.0,46.0,29.93,WSW,250,7.0,17.0,57,0.00,,,0.00,,2013-03-16 13:32:00,
2013-03-16 09:43:00,61.0,46.0,29.93,WSW,250,7.0,17.0,57,0.00,,,0.00,,2013-03-16 13:43:00,
2013-03-16 09:53:00,62.0,46.0,29.93,WSW,251,8.0,16.0,56,0.00,,,0.00,,2013-03-16 13:53:00,
2013-03-16 10:03:00,62.0,46.0,29.93,WSW,251,8.0,16.0,56,0.00,,,0.00,,2013-03-16 14:03:00,
2013-03-16 10:12:00,62.0,46.0,29.93,WSW,251,8.0,16.0,56,0.00,,,0.00,,2013-03-16 14:12:00,
2013-03-16 10:22:00,65.0,46.0,29.92,SW,232,10.0,20.0,51,0.00,,,0.00,,2013-03-16 14:22:00,
2013-03-16 10:32:00,66.0,47.0,29.92,SW,235,9.0,18.0,50,0.00,,,0.00,,2013-03-16 14:32:00,
2013-03-16 10:42:00,66.0,47.0,29.92,SW,235,9.0,18.0,50,0.00,,,0.00,,2013-03-16 14:42:00,
2013-03-16 11:03:00,68.0,48.0,29.91,West,267,6.0,17.0,48,0.00,,,0.00,,2013-03-16 15:03:00,
2013-03-16 11:13:00,68.0,48.0,29.91,West,267,6.0,17.0,48,0.00,,,0.00,,2013-03-16 15:13:00,
2013-03-16 11:23:00,68.0,47.0,29.91,West,269,8.0,21.0,47,0.00,,,0.00,,2013-03-16 15:23:00,
2013-03-16 11:33:00,69.0,47.0,29.91,WSW,238,8.0,16.0,46,0.00,,,0.00,,2013-03-16 15:33:00,
2013-03-16 11:43:00,69.0,47.0,29.91,WSW,238,8.0,16.0,46,0.00,,,0.00,,2013-03-16 15:43:00,
2013-03-16 11:53:00,70.0,48.0,29.90,WSW,243,10.0,17.0,45,0.00,,,0.00,,2013-03-16 15:53:00,
2013-03-16 12:03:00,71.0,48.0,29.90,WSW,240,9.0,20.0,44,0.00,,,0.00,,2013-03-16 16:03:00,
2013-03-16 12:13:00,71.0,48.0,29.90,WSW,240,9.0,20.0,44,0.00,,,0.00,,2013-03-16 16:13:00,
2013-03-16 12:23:00,73.0,48.0,29.89,West,260,7.0,19.0,41,0.00,,,0.00,,2013-03-16 16:23:00,
2013-03-16 12:33:00,73.0,47.0,29.88,WSW,238,10.0,23.0,40,0.00,,,0.00,,2013-03-16 16:33:00,
2013-03-16 12:42:00,73.0,47.0,29.88,WSW,238,10.0,23.0,40,0.00,,,0.00,,2013-03-16 16:42:00,
2013-03-16 12:53:00,73.0,47.0,29.88,West,262,10.0,24.0,39,0.00,,,0.00,,2013-03-16 16:53:00,
2013-03-16 13:03:00,74.0,47.0,29.88,WNW,286,11.0,22.0,38,0.00,,,0.00,,2013-03-16 17:03:00,
2013-03-16 13:13:00,74.0,47.0,29.88,WNW,286,11.0,22.0,38,0.00,,,0.00,,2013-03-16 17:13:00,
2013-03-16 13:23:00,75.0,48.0,29.87,SW,214,7.0,18.0,38,0.00,,,0.00,,2013-03-16 17:23:00,
2013-03-16 13:33:00,75.0,47.0,29.86,WSW,242,7.0,21.0,37,0.00,,,0.00,,2013-03-16 17:33:00,
2013-03-16 13:43:00,75.0,47.0,29.86,WSW,242,7.0,21.0,37,0.00,,,0.00,,2013-03-16 17:43:00,
2013-03-16 13:52:00,76.0,48.0,29.85,SW,218,5.0,18.0,37,0.00,,,0.00,,2013-03-16 17:52:00,
2013-03-16 14:03:00,76.0,47.0,29.84,West,269,6.0,18.0,36,0.00,,,0.00,,2013-03-16 18:03:00,
2013-03-16 14:13:00,76.0,47.0,29.84,West,269,6.0,18.0,36,0.00,,,0.00,,2013-03-16 18:13:00,
2013-03-16 14:23:00,76.0,46.0,29.84,West,259,9.0,25.0,35,0.00,,,0.00,,2013-03-16 18:23:00,
2013-03-16 14:33:00,77.0,47.0,29.84,West,266,11.0,22.0,35,0.00,,,0.00,,2013-03-16 18:33:00,
2013-03-16 14:43:00,77.0,47.0,29.84,West,266,11.0,22.0,35,0.00,,,0.00,,2013-03-16 18:43:00,
2013-03-16 14:52:00,78.0,47.0,29.83,WNW,293,7.0,15.0,34,0.00,,,0.00,,2013-03-16 18:52:00,
2013-03-16 15:02:00,70.0,50.0,29.82,SSE,165,8.0,16.0,50,0.00,,,0.00,,2013-03-16 19:02:00,
2013-03-16 15:12:00,70.0,50.0,29.82,SSE,165,8.0,16.0,50,0.00,,,0.00,,2013-03-16 19:12:00,
2013-03-16 15:22:00,64.0,53.0,29.81,SE,145,10.0,17.0,67,0.00,,,0.00,,2013-03-16 19:22:00,
2013-03-16 15:33:00,64.0,53.0,29.80,SSE,163,7.0,13.0,68,0.00,,,0.00,,2013-03-16 19:33:00,
2013-03-16 15:42:00,64.0,53.0,29.80,SSE,163,7.0,13.0,68,0.00,,,0.00,,2013-03-16 19:42:00,
2013-03-16 15:52:00,63.0,53.0,29.80,South,177,9.0,15.0,71,0.00,,,0.00,,2013-03-16 19:52:00,
2013-03-16 16:02:00,62.0,53.0,29.80,SSE,163,9.0,19.0,73,0.00,,,0.00,,2013-03-16 20:02:00,
2013-03-16 16:12:00,62.0,53.0,29.80,SSE,163,9.0,19.0,73,0.00,,,0.00,,2013-03-16 20:12:00,
2013-03-16 16:22:00,63.0,54.0,29.79,SSW,192,6.0,14.0,73,0.00,,,0.00,,2013-03-16 20:22:00,
2013-03-16 16:33:00,63.0,54.0,29.79,SSW,194,8.0,17.0,73,0.00,,,0.00,,2013-03-16 20:33:00,
2013-03-16 16:42:00,63.0,54.0,29.79,SSW,194,8.0,17.0,73,0.00,,,0.00,,2013-03-16 20:42:00,
2013-03-16 16:52:00,64.0,54.0,29.79,SSW,209,7.0,20.0,70,0.00,,,0.00,,2013-03-16 20:52:00,
2013-03-16 17:02:00,64.0,54.0,29.79,SSW,209,7.0,20.0,70,0.00,,,0.00,,2013-03-16 21:02:00,
2013-03-16 17:12:00,64.0,54.0,29.79,SSW,209,7.0,20.0,70,0.00,,,0.00,,2013-03-16 21:12:00,
2013-03-16 17:22:00,64.0,54.0,29.79,SSW,209,7.0,20.0,70,0.00,,,0.00,,2013-03-16 21:22:00,
2013-03-16 17:33:00,64.0,54.0,29.79,South,178,7.0,20.0,71,0.00,,,0.00,,2013-03-16 21:33:00,
2013-03-16 17:43:00,64.0,54.0,29.79,South,178,7.0,20.0,71,0.00,,,0.00,,2013-03-16 21:43:00,
2013-03-16 17:53:00,64.0,53.0,29.78,SSW,193,9.0,17.0,68,0.00,,,0.00,,2013-03-16 21:53:00,
2013-03-16 18:03:00,63.0,53.0,29.79,South,180,7.0,17.0,71,0.00,,,0.00,,2013-03-16 22:03:00,
2013-03-16 18:13:00,63.0,53.0,29.79,South,180,7.0,17.0,71,0.00,,,0.00,,2013-03-16 22:13:00,
2013-03-16 18:23:00,63.0,53.0,29.79,South,171,7.0,17.0,71,0.00,,,0.00,,2013-03-16 22:23:00,
2013-03-16 18:33:00,63.0,53.0,29.79,South,177,7.0,16.0,71,0.00,,,0.00,,2013-03-16 22:33:00,
2013-03-16 18:42:00,63.0,53.0,29.79,South,177,7.0,16.0,71,0.00,,,0.00,,2013-03-16 22:42:00,
2013-03-16 18:52:00,63.0,53.0,29.79,SE,135,8.0,17.0,70,0.00,,,0.00,,2013-03-16 22:52:00,
2013-03-16 19:02:00,63.0,53.0,29.80,SSW,194,7.0,16.0,71,0.00,,,0.00,,2013-03-16 23:02:00,
2013-03-16 19:13:00,63.0,53.0,29.80,SSW,194,7.0,16.0,71,0.00,,,0.00,,2013-03-16 23:13:00,
2013-03-16 19:23:00,63.0,53.0,29.80,SSW,194,7.0,16.0,71,0.00,,,0.00,,2013-03-16 23:23:00,
2013-03-16 19:33:00,63.0,53.0,29.79,SW,226,8.0,14.0,70,0.00,,,0.00,,2013-03-16 23:33:00,
2013-03-16 19:42:00,63.0,53.0,29.79,SW,226,8.0,14.0,70,0.00,,,0.00,,2013-03-16 23:42:00,
2013-03-16 19:53:00,63.0,54.0,29.80,South,186,6.0,13.0,72,0.00,,,0.00,,2013-03-16 23:53:00,
2013-03-16 20:02:00,63.0,53.0,29.80,South,177,2.0,10.0,71,0.00,,,0.00,,2013-03-17 00:02:00,
2013-03-16 20:12:00,63.0,53.0,29.80,South,177,2.0,10.0,71,0.00,,,0.00,,2013-03-17 00:12:00,
2013-03-16 20:22:00,63.0,54.0,29.81,SSW,207,2.0,10.0,72,0.00,,,0.00,,2013-03-17 00:22:00,
2013-03-16 20:33:00,62.0,53.0,29.81,SSE,148,4.0,9.0,73,0.00,,,0.00,,2013-03-17 00:33:00,
2013-03-16 20:42:00,62.0,53.0,29.81,SSE,148,4.0,9.0,73,0.00,,,0.00,,2013-03-17 00:42:00,
2013-03-16 20:52:00,61.0,53.0,29.82,SW,214,4.0,8.0,74,0.00,,,0.00,,2013-03-17 00:52:00,
2013-03-16 21:02:00,61.0,53.0,29.82,SSW,200,2.0,7.0,76,0.00,,,0.00,,2013-03-17 01:02:00,
2013-03-16 21:12:00,61.0,53.0,29.82,SSW,200,2.0,7.0,76,0.00,,,0.00,,2013-03-17 01:12:00,
2013-03-16 21:22:00,61.0,53.0,29.83,SSE,164,3.0,6.0,74,0.00,,,0.00,,2013-03-17 01:22:00,
2013-03-16 21:32:00,60.0,53.0,29.83,SSE,163,2.0,5.0,77,0.00,,,0.00,,2013-03-17 01:32:00,
2013-03-16 21:42:00,60.0,53.0,29.83,SSE,163,2.0,5.0,77,0.00,,,0.00,,2013-03-17 01:42:00,
2013-03-16 21:52:00,60.0,53.0,29.84,South,175,2.0,6.0,77,0.00,,,0.00,,2013-03-17 01:52:00,
2013-03-16 22:03:00,60.0,53.0,29.85,SSE,161,1.0,4.0,77,0.00,,,0.00,,2013-03-17 02:03:00,
2013-03-16 22:13:00,60.0,53.0,29.85,SSE,161,1.0,4.0,77,0.00,,,0.00,,2013-03-17 02:13:00,
2013-03-16 22:22:00,60.0,53.0,29.85,SSW,196,0.0,4.0,78,0.00,,,0.00,,2013-03-17 02:22:00,
2013-03-16 22:33:00,60.0,53.0,29.86,South,173,2.0,6.0,78,0.00,,,0.00,,2013-03-17 02:33:00,
2013-03-16 22:43:00,60.0,53.0,29.86,South,173,2.0,6.0,78,0.00,,,0.00,,2013-03-17 02:43:00,
2013-03-16 22:52:00,59.0,52.0,29.87,SSE,161,0.0,4.0,79,0.00,,,0.00,,2013-03-17 02:52:00,
2013-03-16 23:03:00,59.0,52.0,29.88,SSE,164,1.0,4.0,79,0.00,,,0.00,,2013-03-17 03:03:00,
2013-03-16 23:12:00,59.0,52.0,29.88,SSE,164,1.0,4.0,79,0.00,,,0.00,,2013-03-17 03:12:00,
2013-03-16 23:22:00,59.0,53.0,29.88,SSW,195,3.0,6.0,81,0.00,,,0.00,,2013-03-17 03:22:00,
2013-03-16 23:34:00,59.0,53.0,29.88,South,171,1.0,5.0,81,0.00,,,0.00,,2013-03-17 03:34:00,
2013-03-16 23:43:00,59.0,53.0,29.88,South,171,1.0,5.0,81,0.00,,,0.00,,2013-03-17 03:43:00,
2013-03-16 23:52:00,59.0,53.0,29.88,South,180,1.0,5.0,80,0.00,,,0.00,,2013-03-17 03:52:00,